Aérodrome :
LOGIN :

S'inscrire | Disclaimer

   EN    FR    IT 

 










Légende :    VFR   VFR Marginal   IFR   IFR Intensif   IFR Très Intensif
Visi : 
Plafond : 
>= 8 km
>= 3000ft
5 à 8 km
1000 à 3000 ft
1500m à 5 km
500 à 1000 ft
800 à 1500m
200 à 500 ft
< 800m
< 200 ft
Symboles :   Orages  Brouillard  Fortes neiges  Fortes précipitations  Vent > 20 kt
SIGMETs :   Divers  Orages  Givrage  Turbulence  Onde Orograph.  Cendres Volcan.






- Altitude de l'aérodrome : 1455 ft


ETIH - Hohenfels Army Air Field

DERNIER METAR :
  • 171932Z AUTO 24006KT 9999 -RA BKN050 10/05 A2983 RMK AO2 RAB32 SLP104 $

METARs EXPIRÉS :
  • 171856Z AUTO 24006KT 9999 FEW028 BKN037 BKN046 OVC060 11/06 A2981 RMK AO2 RAB09E18RAB18E18 SLP099 P0000 T01090056 $
  • 171818Z AUTO 22004KT 9999 SCT034 BKN043 BKN050 BKN060 12/06 A2980 RMK AO2 RAB09E18RAB18 SLP093 $
  • 171809Z AUTO 23007KT 9999 -RA FEW035 BKN043 OVC060 12/05 A2980 RMK AO2 RAB09 SLP093 $
  • 171656Z AUTO 24008KT 9999 FEW032 SCT042 SCT049 BKN060 OVC070 13/06 A2978 RMK AO2 SLP087 T01250061 $

Prévision TAF périmée.



MET'MAP, la Météo Aéronautique d'un coup d'oeil ! - Copyright ORBIFLY Décembre 2007 - Disclaimer

ORBIFLY MET'MAP TEAM :

Programmation & Développement : Alexandra Zaïnal
Sur une idée originale de : Baudouin d'Aumeries
Assistance à la programmation : Marc-Olivier Méhu
Soutien technique & logistique : Manuel Goepfert

Contact : metmap@orbifly.com




SOURCES & CREDITS :

   NOAA